Location: Newark
(27.9675°N, 86.8869°E)
Time: 10:20:58
(UTC+00:00)

Altair - Pass Details

Date: 01 November 2019
Orbit: 1502 x 1682 km, 47.2° (Epoch: 11 November)

Event Time Altitude Azimuth Distance (km) Brightness Sun altitude
Rises 03:31:26 0° 276° (W) 4,655 9.6 35.1°
Reaches altitude 10° 03:35:05 10° 288° (WNW) 3,693 9.2 35.7°
Maximum altitude 03:42:46 28° 344° (NNW) 2,615 8.6 36.8°
Drops below altitude 10° 03:50:41 10° 40° (NE) 3,806 9.6 37.9°
Sets 03:54:33 0° 52° (NE) 4,823 10.1 38.5°
